User: anonymous   Login
Location: Oshawa
(43.9000°N, 78.8670°W)
Time: 19:09:36
(UTC-05:00)
Language:

Cosmos 1805 Rocket - Orbit

View from above orbital plane
View from above orbital plane
View from above satellite
View from above satellite

Ground track
Ground track

The orbit data is extracted from the following two-line orbital elements,

1 17192U 86097B   17017.63997855  .00000052  00000-0  34096-5 0  9992
2 17192  82.5048  37.8073 0015621 234.7253 264.9897 14.83483878626360
Epoch (UTC): 17 January 2017 15:21:34
Eccentricity: 0.0015621
inclination: 82.5048°
perigee height: 607 km
apogee height: 629 km
right ascension of ascending node: 37.8073°
argument of perigee: 234.7253°
revolutions per day: 14.83483878
mean anomaly at epoch: 264.9897°
orbit number at epoch: 62636

The dashed part of the orbit path shows where the satellite is in the earth's shadow,  

DLR